User: anonymous   Login
Location: Hurecourt
(47.9030°N, 6.0653°E)
Time: 01:42:28
(UTC+00:00)
Language:

SWAS - Orbit

View from above orbital plane
View from above orbital plane
View from above satellite
View from above satellite

Ground track
Ground track

The orbit data is extracted from the following two-line orbital elements,

1 25560U 98071A   20272.30289862 +.00000245 +00000-0 +31507-4 0  9995
2 25560 069.8974 124.8699 0008682 206.2325 153.8392 14.93911717184384
Epoch (UTC): 28 September 2020 07:16:10
Eccentricity: 0.0008682
inclination: 69.8974°
perigee height: 580 km
apogee height: 592 km
right ascension of ascending node: 124.8699°
argument of perigee: 206.2325°
revolutions per day: 14.93911717
mean anomaly at epoch: 153.8392°
orbit number at epoch: 18438

The dashed part of the orbit path shows where the satellite is in the earth's shadow,  

DLR